STARLINK-4451 (53492 NORAD) Tracking and Keplerian Element Data

This shows tracking and keplerian element data for the satellite.

Feedback or suggestion? Click here.




ElementValue
Catalog53492
NameSTARLINK-4451
Epoch Orbit1551
Epoch Day325.21586828
Epoch Year2022
RAAN84.2815
Inclination97.6582
Eccentricity0.0003179
Argument of Perigee359.8689
Mean Anonmoly0.2534
Mean Motion15.01265967
Decay Rate1.376E-05
L11 53492U 22099AD 22325.21586828 .00001376 00000+0 11169-3 0 9996
L22 53492 97.6582 84.2815 0003179 359.8689 0.2534 15.01265967 15516



Live tracking and technical data element details for STARLINK-4451 (NORAD 53492). STARLINK-4451 can be tracked NOW for your location showing map with azimuth and elevation plus other details from your city location.







IsCatalogInMostPopularTable: catalog: 53492, numindb: 5
Update: records affected: 1



GetName: 53492 STARLINK-4451

Hit Count: updated at: Thu, 08 Dec 2022 19:35:00 GMT